Weather in Rudny

Kazakhstan     52°57′51″N   63°08′00″E
temp.,
°C
wind,
m/s
gust,
m/s
humid.,
%
clouds,
%
prec.,
mm/h
press.,
hPa
HPBL,
m
27 january, thu
thu2700:00−14s41181100 0.0 1029186
03:00−14ssw41184100 0.0 1028180
06:00−13ssw41092100 0.0 1028168
09:00−10ssw3895100 0.0 1028162
12:00−8ssw4895100 0.0 1028204
15:00−6ssw4795100 0.1 1028248
18:00−6ssw3696100 0.9 1028243
21:00−9s3496100 0.1 102757
28 january, fri
fri2800:00−12s2298100 0.1 102733
03:00−10s2296100 0.0 102732
06:00−9sse1196100 0.1 102623
09:00−15sse1197100 0.0 102610
12:00−12ese1295100 0.0 102657
15:00−9e1292100 0.0 1025101
18:00−13ene229770 0.0 102411
21:00−15ene2396100 0.0 102436
29 january, sat
sat2900:00−16ene2294100 0.0 102322
03:00−17ne2291100 0.0 102210
06:00−15ene2389100 0.0 102139
09:00−15ene2390100 0.0 102047
12:00−11ene2785100 0.0 1020177
15:00−9e2484100 0.0 1018177
18:00−11e2292100 0.0 101815
21:00−13sse1195100 0.0 101810
30 january, sun
sun3000:00−16sw2298100 0.0 101814
03:00−18wsw339825 0.0 101842
06:00−21wsw3410034 0.0 101848
09:00−20sw37975 0.0 101980
12:00−13sw4119386 0.0 1019243
15:00−9sw613925 0.0 1018336
18:00−9ssw5129314 0.0 1019228
21:00−7ssw6159435 0.0 1019283
31 january, mon
mon3100:00−6ssw61494100 0.0 1019328
03:00−3ssw81689100 0.0 1019528
06:00−4ssw71489100 0.0 1020444
09:00−5ssw61391100 0.0 1021351
12:00−5ssw6129598 0.1 1022414
15:00−5ssw6139178 0.1 1023363
18:00−7ssw61290100 0.1 1024281
21:00−7ssw5128980 0.0 1025250